www.pogodaiklimat.ru

Погода и климат >> Архив погоды >> Индонезия >> Каимана


ПОГОДА в Каимана

  • Прогноз погоды в Каимана
  • Монитор погоды в Каимана

АРХИВ ПОГОДЫ в Каимана

Время (UTC), дата Ветер
(напр.,м/с)
 
Видим.   Явления Облачность Т
(С)
Тd
(С)
f
(%)
Тe
(С)
Тes
(С)
Комфортность P
(гПа)
Po
(гПа)
Тmin
(С)
Tmax
(С)
R
(мм)
R24
(мм)
S
(см)
03 12.08 ЮВ 4 6000 м в посл. час дождь 10/4 450 м
[Cu Sc As op Ci sp]
+26.0 +23.7 87 +35 +40 очень
душно
1013.4 1012.5 0.8
06 12.08 Ю 3 7000 м слаб. дождь 10/4 450 м
[Cu Sc Ac As Ci fib]
+25.5 +23.7 90 +35 +37 очень
душно
1011.3 1010.4 0.2
09 12.08 ЮВ 4 6000 м в посл. час дождь 9/5 450 м
[Cu Sc As op]
+24.5 +23.3 93 +33 +33 очень
душно
1012.4 1011.5 2
12 12.08 ЮВ 4 6000 м осадки на расстоянии 9/5 450 м
[Cu Sc As op]
+24.9 +23.0 89 +33 +33 очень
душно
1014.0 1013.1 +26.4 2
15 12.08 Ю 3 5000 м в посл. час дождь 10/6 450 м
[Cu Sc As op]
+24.1 +23.2 95 +32 +32 очень
душно
1013.5 1012.6 0.0
18 12.08 ЮВ 2 5000 м в посл. час дождь 10/6 450 м
[Cu Sc As op]
+24.4 +23.2 93 +33 +33 очень
душно
1011.9 1011.0 0.2
21 12.08 ЮВ 2 5000 м осадки на расстоянии 10/6 450 м
[Cu Sc As op]
+24.6 +23.2 92 +33 +33 очень
душно
1012.8 1011.9
00 13.08 Ю 3 5000 м слаб. дождь 10/8 450 м
[Cu Sc As op]
+24.5 +23.5 94 +33 +33 очень
душно
1014.5 1013.6 +23.9 0.0 3
03 13.08 ЮВ 4 5000 м осадки на расстоянии 10/6 450 м
[Cu Sc As op]
+25.1 +23.2 89 +34 +35 очень
душно
1013.1 1012.2 2
06 13.08 ЮВ 4 7000 м осадки на расстоянии 9/5 450 м
[Cu Sc Ac trans Ci fib]
+26.5 +23.0 81 +35 +38 очень
душно
1010.7 1009.8 2
09 13.08 ЮВ 4 6000 м 10/6 450 м
[Cu Sc Ac As Ci sp]
+24.9 +23.1 90 +33 +33 очень
душно
1011.8 1010.9
12 13.08 ЮВ 3 5000 м в посл. час дождь 10/6 450 м
[Cu Sc Ac As]
+24.7 +23.2 91 +33 +33 очень
душно
1014.4 1013.5 +27.4 0.0
15 13.08 Ю 3 6000 м 9/5 450 м
[Cu Sc Ac trans Ci sp]
+24.2 +23.0 93 +32 +32 очень
душно
1013.7 1012.8
18 13.08 Ю 3 6000 м 9/4 450 м
[Cu Sc Ac trans Ci sp]
+24.3 +23.1 93 +32 +32 очень
душно
1012.8 1011.9
21 13.08 Ю 3 5000 м слаб. дождь 9/5 450 м
[Cu Sc Ac trans Ci sp]
+24.3 +23.1 93 +32 +32 очень
душно
1013.8 1012.9 0.2
00 14.08 Ю 3 5000 м осадки на расстоянии 10/8 450 м
[Cu Sc Ac trans Ci sp]
+24.6 +23.6 94 +33 +34 очень
душно
1015.5 1014.6 +23.9 0.2 2
03 14.08 Ю 4 6000 м 10/5 450 м
[Cu Sc Ac trans Ci sp]
+26.4 +24.1 87 +37 +40 очень
душно
1014.0 1013.1
06 14.08 Ю 3 7000 м осадки на расстоянии 10/6 450 м
[Cu Sc Ac trans Ci sp]
+25.9 +23.6 87 +35 +37 очень
душно
1011.4 1010.5
09 14.08 Ю 4 6000 м осадки на расстоянии 10/6 450 м
[Cu Sc Ac trans Ci sp]
+25.1 +23.2 89 +34 +34 очень
душно
1012.3 1011.4
12 14.08 Ю 4 5000 м осадки на расстоянии 10/6 450 м
[Cu Sc Ac trans Ci sp]
+25.0 +23.1 89 +33 +33 очень
душно
1013.8 1012.9 +27.3
15 14.08 Ю 4 5000 м осадки на расстоянии 10/6 450 м
[Cu Sc Ac trans Ci sp]
+25.1 +22.8 87 +33 +33 очень
душно
1013.7 1012.8
18 14.08 Ю 2 5000 м 8/5 450 м
[Cu Sc Ac trans Ci sp]
+25.0 +23.1 89 +33 +33 очень
душно
1013.1 1012.2
21 14.08 Ю 3 6000 м 9/6 450 м
[Cu Sc Ac trans Ci sp]
+24.7 +23.3 92 +33 +33 очень
душно
1013.5 1012.6
00 15.08 ЮВ 2 8000 м 8/4 450 м
[Cu Sc Ac trans Ci fib]
+26.5 +24.0 86 +37 +40 очень
душно
1015.2 1014.3 +24.6
03 15.08 Ю 5 5000 м осадки на расстоянии 10/6 450 м
[Cu Sc As op Ci fib]
+26.7 +23.8 84 +37 +39 очень
душно
1014.2 1013.3
06 15.08 ЮВ 3 6000 м осадки на расстоянии 9/5 450 м
[Cu Sc As op Ci fib]
+26.8 +24.3 86 +37 +40 очень
душно
1011.7 1010.8
09 15.08 Ю 2 6000 м в посл. час дождь 9/6 450 м
[Cu Sc As op Ci fib]
+25.0 +23.3 90 +33 +33 очень
душно
1012.0 1011.1 0.6
12 15.08 Ю 2 5000 м 10/8 450 м
[Cu Sc As op]
+25.1 +23.5 91 +34 +34 очень
душно
1013.6 1012.7 +28.0 0.6
15 15.08 ЮВ 4 5000 м осадки на расстоянии 10/8 450 м
[Cu Sc As op]
+25.0 +23.2 90 +33 +33 очень
душно
1013.2 1012.2
18 15.08 Ю 2 5000 м осадки на расстоянии 10/8 450 м
[Cu Sc As op]
+24.8 +23.1 90 +33 +33 очень
душно
1012.6 1011.7
21 15.08 Ю 2 6000 м 9/6 450 м
[Cu Sc Ac trans Ci sp]
+24.6 +22.8 90 +33 +33 очень
душно
1013.1 1012.2
00 16.08 ЮВ 3 8000 м 6/4 450 м
[Cu med, cong Ac lent]
+27.3 +23.4 79 +37 +40 очень
душно
1014.0 1013.1 +24.5 0.6
03 16.08 Ю 5 9000 м 4/4 450 м
[Cu med, cong]
+28.4 +24.3 78 +40 +47 очень
душно
1012.8 1011.9
06 16.08 Ю 4 10 км 5/4 450 м
[Cu med, cong Ac trans]
+28.0 +24.2 80 +39 +43 очень
душно
1010.7 1009.8
09 16.08 Ю 2 9000 м 6/4 450 м
[Cu med, cong Ac trans Ci fib]
+25.7 +23.7 89 +35 +35 очень
душно
1010.9 1010.0
12 16.08 ЮВ 3 6000 м 8/5 450 м
[Cu Sc Ac trans Ci fib]
+25.3 +23.5 90 +34 +34 очень
душно
1013.0 1012.1 +29.0
15 16.08 штиль 0 6000 м 8/5 450 м
[Cu Sc Ac trans Ci fib]
+25.0 +23.6 92 +34 +34 очень
душно
1012.8 1011.9
18 16.08 ЮВ 2 5000 м осадки на расстоянии 10/5 450 м
[Cu Sc Ac trans Ci fib]
+24.7 +23.5 93 +33 +33 очень
душно
1012.2 1011.3 0.2
21 16.08 штиль 0 5000 м 9/5 450 м
[Cu Sc Ac trans Ci fib]
+24.6 +23.6 94 +33 +33 очень
душно
1012.7 1011.8
00 17.08 Ю 3 8000 м 9/5 450 м
[Cu Sc Ac trans Ci sp]
+26.2 +23.7 86 +36 +38 очень
душно
1013.8 1012.9 +24.5 0.2
03 17.08 Ю 3 8000 м 9/5 450 м
[Cu Sc Ac trans Ci sp]
+27.2 +23.7 81 +37 +42 очень
душно
1012.3 1011.4
06 17.08 Ю 2 8000 м осадки на расстоянии 9/5 450 м
[Cu Sc Ac trans Ci fib]
+27.3 +24.3 84 +38 +41 очень
душно
1010.5 1009.6
09 17.08 ЮЗ 2 8000 м 10/6 450 м
[Cu Sc Ac As Ci sp]
+26.5 +23.8 85 +36 +36 очень
душно
1010.9 1010.0
12 17.08 Ю 1 5000 м осадки на расстоянии 10/6 450 м
[Cu med, cong Ac trans Ci sp]
+25.2 +24.4 95 +35 +35 очень
душно
1013.5 1012.6 +27.8
15 17.08 штиль 0 6000 м 10/5 450 м
[Cu Sc Ac trans Ci fib]
+24.9 +24.0 95 +34 +34 очень
душно
1013.1 1012.2
18 17.08 штиль 0 5000 м 10/6 450 м
[Cu Sc As op Ci fib]
+24.4 +23.5 95 +33 +33 очень
душно
1012.2 1011.3
21 17.08 штиль 0 6000 м 9/5 450 м
[Cu Sc Ac trans Ci fib]
+24.1 +23.1 94 +32 +32 очень
душно
1011.9 1011.0
00 18.08 ЮВ 2 8000 м 8/4 450 м
[Cu med, cong Ac trans Ci fib]
+26.1 +22.2 79 +34 +38 очень
душно
1013.6 1012.7 +24.0 0.0
03 18.08 Ю 3 10 км 6/3 450 м
[Cu med, cong Ac trans]
+28.2 +23.5 76 +38 +47 очень
душно
1012.6 1011.7
06 18.08 Ю 4 10 км 8/4 450 м
[Cu med, cong Ac trans]
+28.4 +23.7 76 +39 +42 очень
душно
1009.8 1008.9
09 18.08 Ю 2 10 км 6/4 450 м
[Cu med, cong Ac trans]
+26.3 +23.6 85 +36 +36 очень
душно
1009.7 1008.8
12 18.08 ЮВ 2 8000 м 8/4 450 м
[Cu med, cong Ac trans Ci fib]
+25.4 +23.6 90 +35 +35 очень
душно
1011.8 1010.9 +29.2
15 18.08 Ю 3 5000 м осадки на расстоянии 10/6 450 м
[Cu Sc Ac trans Ci sp]
+24.9 +23.6 92 +34 +34 очень
душно
1011.7 1010.8
18 18.08 Ю 4 5000 м осадки на расстоянии 10/6 450 м
[Cu Sc As op]
+24.9 +23.9 94 +34 +34 очень
душно
1010.3 1009.4 3
21 18.08 Ю 2 5000 м слаб. дождь 10/8 450 м
[Cu Sc Ac trans Ci sp]
+25.0 +23.8 93 +34 +34 очень
душно
1011.1 1010.2 0.2

 

Местоположение метеостанции Каимана (Индонезия): широта -3.67 долгота 133.75 высота над уровнем моря 3 м.

В архиве по умолчанию представлена погода в Каимана за последнюю неделю. Архивные данные за месяц целиком и за предыдущие месяцы, начиная с января 2011 года, Вы можете получить, выбрав интересующий диапазон дат из раскрывающегося списка и нажав кнопку "Ввод!".


*Определитесь, кто Вы:
робот инопланетянин человек

Внимание! Время в таблицах - всемирное. Для получения местного времени необходимо прибавить поправку, которая равна 9 ч.

Смотрите также архив погоды в соседних городах и на ближайших метеорологических станциях:

Погода в Факфаке (Индонезия) (185 км)
Погода в Набире (Индонезия) (198 км)
Погода в Туале (Индонезия) (250 км)
Погода в Энаротали (Индонезия) (292 км)
Погода в Маноквари (Индонезия) (312 км)
Погода в Гесере (Индонезия) (324 км)
Погода в Серуи (Индонезия) (341 км)
Погода в Биаке (Индонезия) (381 км)
Погода в Аэропорту Соронг-Джефман (Индонезия) (423 км)
Погода в Коконао (Индонезия) (436 км)

Пояснения к столбцам:

Ветер - указаны скорость ветра в м/с - средняя за 10 мин, порывы в срок и между сроками (в фигурных скобках) и направление, откуда дует ветер: С - северный, СВ - северо-восточный, В - восточный, ЮВ - юго-восточный, Ю - южный, ЮЗ - юго-западный, З - западный, СЗ - северо-западный.
Видимость - горизонтальная дальность видимости в метрах или километрах. При видимости от 1 до 10 км при отсутствии осадков обычно наблюдается дымка, при ухудшении видимости до 1 км и менее - туман. В сухую погоду видимость может ухудшаться дымом, пылью или мглою.
Явления - указаны атмосферные явления, наблюдавшиеся в срок или в последний час перед сроком; фигурными скобками обозначены явления, наблюдавшиеся между сроками (за 1-3 часа до срока); квадратными скобками обозначены град или гололедные отложения с указанием их диаметра в мм.
Облачность - указаны через наклонную черту общая и нижняя облачность в баллах и высота нижней границы облаков в метрах; квадратными скобками обозначены формы облаков: Ci - перистые, Cs - перисто-слоистые, Cc - перисто-кучевые, Ac - высококучевые, As - высокослоистые, Sc - слоисто-кучевые, Ns - слоисто-дождевые, Cu - кучевые, Cb - кучево-дождевые. Подробнее классификацию облаков см. в Атласе облаков (PDF).
T - Температура воздуха - температура, измеренная на высоте 2 м над землей.
Td - Температура точки росы - температура, при понижении до которой содержащийся в воздухе водяной пар достигнет насыщения.
f - Относительная влажность воздуха - влажноcть воздуха, измеренная на высоте 2 м над землей.
Te - Эффективная температура - температура, которую ощущает одетый по сезону человек в тени. Характеристика душности погоды. При расчете учитывается влияние влажности воздуха и скорости ветра на теплоощущения человека.
Tes - Эффективная температура на солнце - температура, которую ощущает человек, с поправкой на солнечный нагрев. Характеристика знойности погоды. Зависит от высоты солнца над горизонтом, облачности и скорости ветра. Ночью, в пасмурную погоду, а также при ветре 12 м/с и более поправка равна нулю.
P - Атмосферное давление - приведенное к уровню моря атмосферное давление.
Po - Атмосферное давление - измеренное на уровне метеостанции атмосферное давление.
Tmin - Минимальная температура - минимум температуры воздуха на высоте 2 м над землей.
Tmax - Максимальная температура - максимум температуры воздуха на высоте 2 м над землей.
R - Количество осадков - Количество выпавших осадков за период времени, мм. При наведении курсора мыши на число - период времени, за который выпало указанное количество осадков.
R24 - Количество осадков - Количество выпавших осадков за 24 часа, мм.
S - Снежный покров - Высота снежного покрова, см. При наведении курсора мыши на число - состояние снежного покрова и степень покрытия местности в баллах.